Wind_Speed
48 52 53 53 57 63 64 61 59 58 55 52 55 51 49 49 51 55 54 52 50 47 45 44 41 39 36 35 34 35 34 32 33 34 32 32 31 27 27 29 29 25 25
46 49 54 58 60 60 60 61 63 61 61 60 60 58 58 55 54 53 58 58 57 54 53 51 48 46 43 40 40 40 39 38 38 39 37 35 34 29 31 33 32 30 32
49 51 54 58 61 64 66 67 65 62 63 63 64 64 64 62 61 60 58 63 63 63 62 60 56 54 52 47 47 48 46 45 44 44 42 39 34 34 34 34 34 34 35
50 53 57 62 65 67 68 70 72 71 68 66 65 67 68 67 67 65 66 63 66 70 70 68 65 63 61 58 55 54 54 53 48 48 45 43 39 37 37 38 38 37 36
44 47 53 59 63 68 73 74 75 77 76 75 71 68 71 71 69 69 70 69 70 72 74 73 72 68 67 66 63 62 60 58 57 54 53 52 47 45 44 40 39 41 38
33 30 29 29 32 37 47 61 78 81 81 80 80 77 72 73 72 72 69 73 75 74 79 79 77 74 72 72 73 71 68 66 64 62 61 59 58 55 53 52 45 46 46
20 19 23 28 25 26 24 26 41 59 81 86 84 84 81 75 76 74 74 72 82 67 62 63 83 76 73 79 79 79 76 74 73 71 69 68 66 65 63 60 57 56 54
15 18 20 23 20 18 21 21 21 24 51 70 85 86 85 83 79 78 79 79 78 81 70 60 79 77 84 82 68 81 83 81 82 80 79 79 76 72 71 70 66 66 64
18 21 19 20 16 12 14 18 22 23 23 37 61 75 86 84 84 83 81 85 79 84 86 71 57 82 85 87 89 84 86 76 88 83 76 85 86 84 77 78 75 74 72
20 26 27 22 20 19 16 15 15 14 19 20 28 54 67 80 83 84 85 86 81 81 83 80 70 55 68 71 80 69 59 76 76 80 69 73 75 94 84 82 80 81 82
16 20 18 18 20 20 21 19 17 16 15 17 18 18 43 62 74 79 84 86 88 82 82 82 88 89 84 78 73 88 88 77 80 79 81 65 81 69 62 81 79 73 79
13 14 16 17 18 17 17 16 17 19 17 17 15 14 12 20 48 69 75 83 88 90 87 88 89 91 90 93 92 82 70 65 69 67 71 80 95 103 83 79 67 74 86
10 11 11 13 15 16 16 17 16 17 18 17 16 16 14 12 10 19 37 62 82 84 88 91 91 93 93 92 92 93 93 92 90 88 80 86 79 77 87 89 86 90 76
14 13 13 14 14 15 15 16 17 18 18 19 19 18 17 18 20 21 24 25 30 40 56 68 80 91 96 94 93 94 95 95 95 94 94 94 92 89 91 89 85 87 86
15 16 16 18 18 19 19 20 20 20 20 21 21 21 19 19 20 21 23 27 32 39 45 50 56 61 70 82 92 83 93 99 99 98 97 96 96 93 94 89 88 83 86
17 18 19 20 20 20 21 21 21 21 21 20 20 22 22 23 23 24 25 28 32 36 41 48 53 59 65 69 76 85 75 80 92 91 95 98 97 96 96 94 91 90 92
18 19 21 21 21 22 22 23 23 23 21 21 22 22 24 26 28 28 30 31 34 37 40 45 51 57 62 67 72 77 82 81 80 85 85 84 84 91 98 98 96 97 95
18 20 21 21 21 22 23 24 24 24 24 24 24 25 26 29 31 33 35 38 41 43 44 48 54 57 60 63 66 71 76 80 83 83 83 86 84 80 80 86 90 95 99
19 21 22 23 23 23 23 24 26 27 27 27 28 29 31 32 35 37 39 42 45 50 54 58 60 60 61 63 65 67 69 73 77 80 82 84 85 86 84 83 79 77 83
20 22 23 24 24 25 26 27 28 31 32 31 31 32 35 38 40 42 45 48 51 55 58 63 65 67 68 68 68 68 67 67 68 70 69 68 71 80 87 86 84 79 78
20 21 23 24 25 25 26 28 29 31 32 33 34 35 38 41 44 48 51 54 58 62 65 67 70 72 70 65 61 59 59 59 57 55 53 54 55 54 56 70 80 82 78
20 21 23 24 25 26 27 29 31 33 34 35 36 37 41 44 48 52 56 60 63 67 71 73 72 63 54 51 50 47 46 46 46 45 45 44 44 45 46 48 52 62 71
21 23 24 25 26 28 29 30 32 34 37 38 40 41 44 48 52 56 59 62 66 71 74 74 60 45 38 38 40 40 39 39 38 39 39 39 40 40 40 41 42 42 45
23 24 26 27 28 30 31 32 34 36 38 40 42 44 46 50 55 59 62 66 69 73 73 60 43 34 35 37 37 34 35 36 36 37 39 41 42 45 47 45 44 43 42
25 26 28 29 30 32 34 35 37 39 40 43 44 46 49 52 56 60 64 67 71 73 64 49 37 36 37 34 32 33 34 36 37 37 40 42 45 46 48 47 46 44 43
27 28 30 31 32 35 37 39 40 41 42 45 47 48 51 53 57 60 63 66 70 64 52 44 40 42 39 32 28 26 28 32 33 33 36 40 44 45 43 41 42 42 39
Wind_Direction
257 257 260 258 256 258 257 258 254 249 243 238 235 238 244 246 246 248 245 245 247 248 250 255 253 254 255 258 258 257 258 258 259 259 259 260 263 269 273 269 267 265 263
257 255 255 257 258 259 260 259 256 252 247 244 239 237 238 243 245 244 249 248 247 249 252 251 252 254 254 253 257 258 256 255 256 257 257 257 258 262 266 268 272 273 272
264 261 258 256 255 254 254 255 256 255 251 245 242 240 240 238 241 243 239 244 246 246 247 248 250 251 252 251 252 254 255 255 255 257 256 258 261 259 259 265 267 268 271
269 265 262 259 255 253 251 250 251 250 250 248 244 241 239 240 239 241 245 242 244 247 251 250 247 247 249 250 249 250 254 257 258 259 260 258 258 256 255 260 261 263 265
279 277 271 268 263 257 252 249 248 248 246 246 244 243 241 240 241 241 241 243 244 242 246 248 250 249 251 253 252 252 251 254 256 258 259 260 257 257 257 252 260 263 264
298 296 298 307 298 289 277 260 246 243 246 244 244 241 240 241 239 242 242 241 249 244 241 241 243 247 249 251 253 253 254 255 255 256 257 258 260 258 257 257 251 255 257
308 315 313 318 316 316 308 297 258 250 244 241 243 243 240 239 241 240 244 243 244 243 230 243 237 241 246 251 252 253 251 252 253 254 254 254 253 256 257 257 258 256 254
299 303 302 309 322 321 323 316 317 303 252 242 242 240 242 239 239 241 242 244 245 248 250 255 234 237 244 243 254 244 251 251 252 250 252 253 254 254 255 255 256 257 258
288 296 302 289 310 319 327 321 313 312 301 265 244 241 240 240 239 240 242 246 244 248 254 259 245 244 242 245 253 256 252 253 256 252 254 254 254 252 253 257 257 258 258
296 290 291 288 298 304 305 310 315 306 308 313 269 250 242 241 240 240 241 245 246 247 250 249 247 249 247 246 245 260 261 246 254 253 272 256 254 250 253 254 256 258 260
346 352 342 323 317 312 297 294 299 304 313 338 333 291 255 244 241 241 243 242 247 246 248 253 255 261 260 258 265 267 261 268 263 269 268 259 254 260 244 257 263 263 257
350 350 349 351 355 1 1 347 317 306 307 311 328 339 319 272 255 243 244 246 246 251 250 250 253 257 259 263 267 260 259 269 268 272 274 276 275 267 251 261 267 262 255
329 336 345 352 353 354 356 357 360 2 3 353 329 313 303 301 287 270 265 259 252 251 255 257 256 259 258 261 262 266 267 269 269 267 260 266 272 268 267 261 274 272 274
321 324 329 334 335 338 345 348 354 0 1 358 351 346 339 318 296 281 278 276 274 270 268 270 268 265 262 263 266 268 268 269 269 270 270 271 273 273 274 276 278 275 272
324 325 332 332 329 332 335 337 338 343 345 346 343 340 334 326 316 307 300 291 284 278 275 273 272 272 270 268 267 270 268 268 268 268 269 271 272 272 273 273 275 272 275
327 331 334 331 328 330 332 330 329 329 329 328 331 332 329 325 320 315 310 305 300 294 289 284 280 275 273 269 268 269 267 267 269 271 270 267 267 268 269 270 270 270 271
324 325 327 325 327 328 328 327 327 325 323 321 325 329 330 328 324 320 317 313 306 302 300 296 290 285 281 277 274 271 270 269 266 267 269 271 269 266 265 266 266 267 267
320 322 322 321 325 325 323 323 323 324 325 323 321 323 324 324 323 321 319 315 314 310 305 303 299 293 286 281 278 276 275 274 272 268 264 266 270 269 266 267 266 266 268
316 317 318 320 324 323 322 321 323 327 326 323 321 321 322 322 321 320 318 317 314 312 310 306 302 297 290 286 281 277 275 274 274 274 272 267 265 268 271 269 267 267 267
315 316 318 319 320 320 321 324 327 327 325 321 318 318 319 320 321 319 318 316 314 313 311 308 305 301 296 291 285 280 274 271 270 271 274 275 274 269 267 268 270 270 269
314 314 316 316 315 315 318 323 324 323 321 319 317 317 317 318 319 318 318 317 316 315 313 311 310 307 302 295 288 281 275 271 271 273 277 281 282 279 275 271 270 269 270
312 312 316 316 315 315 318 320 322 323 322 321 319 318 319 320 320 320 319 319 319 318 318 318 316 311 303 295 290 285 280 277 274 276 279 284 285 286 285 281 275 272 270
311 313 316 317 318 318 317 316 319 322 324 324 322 321 321 322 322 321 321 322 322 322 323 322 319 316 311 304 295 286 285 285 283 281 282 283 284 285 285 285 283 280 273
309 313 315 318 322 322 319 317 319 321 323 323 323 322 322 323 324 324 325 326 325 327 328 322 323 323 316 308 299 287 282 283 283 284 286 286 288 289 288 285 280 277 276
307 311 316 319 323 324 323 321 319 319 322 324 323 323 324 325 326 328 329 329 331 332 328 321 322 322 319 312 300 291 284 281 280 282 284 285 286 286 287 288 287 285 278
304 311 314 319 320 323 324 324 321 320 322 324 323 323 324 326 328 330 331 332 335 332 323 320 320 322 321 317 309 299 291 287 288 288 288 289 288 288 288 285 283 283 281
Height
5788 5787 5786 5788 5789 5789 5791 5794 5800 5805 5809 5810 5813 5817 5821 5823 5827 5830 5832 5832 5833 5835 5837 5839 5840 5841 5844 5844 5844 5844 5844 5845 5842 5841 5843 5843 5844 5846 5846 5845 5845 5845 5843
5777 5777 5776 5775 5776 5777 5776 5778 5782 5787 5793 5797 5801 5803 5807 5811 5815 5816 5821 5823 5824 5825 5828 5829 5831 5833 5834 5835 5835 5835 5835 5835 5833 5832 5832 5834 5836 5839 5837 5837 5839 5839 5838
5763 5763 5763 5762 5762 5763 5764 5764 5767 5770 5774 5780 5785 5789 5792 5797 5798 5802 5804 5807 5811 5812 5812 5816 5820 5821 5822 5823 5823 5823 5823 5822 5822 5820 5820 5823 5827 5826 5827 5827 5828 5829 5830
5747 5747 5745 5744 5744 5746 5748 5749 5750 5753 5757 5761 5768 5772 5775 5779 5783 5789 5791 5794 5798 5800 5800 5803 5805 5807 5809 5809 5811 5811 5811 5810 5814 5811 5812 5810 5814 5815 5817 5816 5817 5817 5818
5733 5730 5728 5725 5723 5724 5726 5730 5733 5735 5739 5743 5748 5755 5758 5764 5768 5772 5776 5780 5781 5784 5788 5791 5793 5795 5799 5799 5798 5799 5799 5800 5800 5801 5801 5800 5800 5802 5802 5805 5807 5807 5809
5722 5719 5717 5715 5711 5708 5705 5707 5712 5717 5720 5725 5729 5735 5742 5747 5753 5756 5761 5766 5760 5763 5765 5772 5775 5779 5783 5784 5784 5785 5788 5787 5788 5789 5788 5788 5789 5789 5788 5788 5795 5792 5794
5717 5715 5712 5709 5706 5702 5697 5693 5692 5695 5701 5705 5710 5715 5723 5731 5736 5741 5743 5747 5742 5739 5733 5744 5755 5764 5770 5767 5767 5768 5769 5770 5770 5772 5774 5772 5771 5773 5773 5772 5775 5777 5779
5714 5712 5709 5706 5701 5697 5693 5689 5686 5683 5681 5684 5690 5695 5701 5712 5720 5724 5727 5728 5730 5733 5736 5734 5738 5746 5750 5751 5732 5739 5750 5751 5753 5752 5755 5757 5756 5758 5758 5755 5756 5757 5761
5712 5709 5706 5703 5698 5694 5689 5685 5680 5677 5673 5670 5671 5676 5683 5691 5701 5707 5712 5710 5717 5717 5717 5723 5724 5729 5733 5735 5733 5732 5730 5736 5735 5734 5736 5739 5737 5739 5742 5744 5744 5741 5741
5709 5705 5701 5698 5695 5691 5687 5682 5678 5674 5669 5663 5660 5662 5667 5675 5683 5692 5696 5697 5701 5704 5706 5711 5706 5707 5716 5714 5716 5709 5713 5718 5721 5718 5716 5716 5716 5720 5723 5725 5727 5727 5724
5707 5701 5696 5693 5691 5686 5682 5678 5674 5669 5665 5661 5657 5654 5656 5660 5668 5676 5681 5686 5685 5689 5692 5691 5690 5691 5692 5691 5692 5690 5696 5698 5700 5700 5700 5703 5705 5708 5702 5708 5715 5702 5706
5706 5702 5698 5693 5689 5684 5680 5676 5672 5667 5663 5659 5655 5652 5651 5652 5657 5661 5668 5671 5674 5672 5676 5677 5677 5676 5677 5678 5676 5676 5675 5677 5678 5681 5682 5680 5681 5684 5689 5693 5689 5691 5694
5705 5702 5698 5694 5689 5685 5681 5676 5672 5667 5662 5658 5655 5652 5651 5651 5652 5654 5657 5658 5658 5660 5659 5660 5660 5659 5660 5659 5659 5657 5657 5659 5660 5662 5663 5660 5661 5664 5665 5668 5670 5673 5677
5700 5698 5695 5692 5689 5685 5681 5676 5672 5668 5663 5659 5656 5653 5651 5649 5649 5649 5650 5650 5648 5647 5647 5644 5641 5639 5639 5640 5638 5637 5636 5636 5637 5638 5638 5639 5642 5645 5645 5648 5650 5652 5654
5696 5694 5691 5688 5685 5681 5678 5674 5670 5666 5663 5659 5656 5653 5650 5648 5646 5645 5643 5642 5640 5638 5635 5631 5626 5623 5621 5619 5617 5617 5616 5613 5614 5616 5616 5616 5619 5622 5625 5631 5631 5634 5637
5692 5689 5687 5685 5682 5678 5675 5672 5668 5664 5661 5658 5654 5650 5647 5644 5641 5639 5637 5634 5631 5627 5623 5618 5613 5608 5603 5601 5598 5593 5594 5594 5590 5588 5591 5595 5600 5600 5603 5608 5610 5616 5619
5689 5686 5684 5681 5678 5674 5671 5668 5664 5661 5657 5654 5650 5647 5643 5639 5635 5632 5628 5625 5621 5616 5611 5605 5599 5593 5587 5582 5577 5572 5568 5569 5571 5569 5566 5565 5570 5576 5580 5581 5585 5588 5596
5685 5682 5680 5678 5675 5671 5668 5664 5661 5657 5652 5649 5645 5642 5638 5634 5630 5625 5620 5614 5608 5603 5597 5591 5583 5575 5569 5563 5557 5552 5546 5542 5542 5545 5546 5546 5544 5548 5554 5557 5559 5563 5564
5681 5679 5676 5673 5670 5667 5664 5660 5656 5651 5647 5643 5639 5635 5631 5627 5622 5617 5612 5606 5599 5591 5582 5573 5566 5558 5550 5542 5536 5533 5529 5523 5518 5514 5515 5520 5523 5523 5525 5529 5534 5539 5539
5678 5674 5671 5668 5665 5662 5659 5655 5650 5645 5641 5637 5633 5629 5623 5618 5612 5607 5601 5594 5587 5578 5569 5558 5547 5536 5527 5519 5512 5508 5506 5504 5501 5495 5491 5491 5494 5497 5499 5502 5505 5511 5516
5673 5671 5668 5665 5661 5658 5654 5650 5646 5642 5637 5632 5627 5622 5616 5610 5604 5596 5588 5580 5572 5563 5553 5543 5529 5516 5503 5492 5485 5482 5481 5480 5481 5481 5479 5476 5474 5474 5476 5478 5480 5486 5492
5668 5666 5663 5660 5657 5653 5648 5644 5640 5635 5630 5625 5620 5614 5608 5601 5594 5586 5576 5566 5556 5545 5533 5520 5506 5493 5483 5473 5467 5464 5463 5463 5465 5466 5466 5465 5462 5460 5458 5458 5460 5464 5468
5662 5660 5657 5654 5651 5647 5642 5638 5634 5628 5622 5616 5610 5604 5598 5591 5583 5574 5565 5554 5542 5529 5515 5501 5488 5479 5470 5463 5457 5454 5453 5452 5452 5452 5453 5451 5450 5448 5448 5445 5444 5445 5448
5657 5654 5652 5648 5644 5640 5636 5631 5626 5620 5615 5609 5602 5596 5589 5581 5572 5561 5550 5538 5525 5512 5498 5484 5477 5470 5464 5456 5449 5446 5445 5444 5443 5442 5441 5439 5438 5436 5434 5433 5432 5432 5432
5651 5649 5645 5642 5638 5634 5629 5624 5619 5614 5608 5601 5594 5587 5579 5571 5562 5550 5537 5525 5509 5495 5483 5473 5468 5462 5456 5449 5442 5439 5437 5435 5434 5434 5432 5430 5427 5424 5421 5419 5416 5415 5416
5645 5642 5639 5636 5632 5628 5622 5617 5612 5605 5599 5592 5585 5578 5570 5561 5551 5541 5530 5514 5499 5483 5470 5463 5458 5454 5446 5440 5436 5433 5430 5428 5426 5425 5422 5419 5416 5412 5409 5406 5405 5403 5402